Regional Weather Roundup
Issued by NWS Sioux Falls, SD

Home | Current Version | Previous Version | Text Only | Print | Product List | Glossary On
Versions: 1 2 3 4 5 6 7 8 9 10 11 12 13 14 15 16 17 18 19 20 21 22 23 24 25 26 27 28 29 30 31 32 33 34 35 36 37 38 39 40 41 42 43 44 45 46 47 48 49 50
000
ASUS43 KFSD 231410
RWRFSD

WEATHER ROUNDUP FOR SE SOUTH DAKOTA/SW MINNESOTA/NW IOWA
NATIONAL WEATHER SERVICE SIOUX FALLS SD
900 AM CDT WED AUG 23 2017

NOTE: "FAIR" INDICATES FEW OR NO CLOUDS BELOW 12,000 FEET WITH NO
SIGNIFICANT WEATHER AND OR OBSTRUCTIONS TO VISIBILITY.


SDZ038>040-050-052>070-231500-
SOUTHEAST SOUTH DAKOTA

CITY           SKY/WX    TMP DP  RH WIND       PRES   REMARKS
BROOKINGS      MOSUNNY   60  53  77 SE3       30.15S
CHAMBERLAIN    SUNNY     64  59  84 E9        30.10S
HURON          SUNNY     60  54  80 SE8       30.11F
MADISON        FAIR      59  59 100 S3        30.15S
MITCHELL       SUNNY     63  56  78 S8        30.12F
SIOUX FALLS    MOSUNNY   64  57  78 CALM      30.15S
WINNER         FAIR      68  56  65 S8        30.08F
YANKTON        SUNNY     60  55  83 CALM      30.16R
$$

MNZ071-072-080-081-089-090-097-098-231500-
SOUTHWEST MINNESOTA

CITY           SKY/WX    TMP DP  RH WIND       PRES   REMARKS
FAIRMONT       SUNNY     63  53  70 W5        30.15R
JACKSON        SUNNY     61  52  72 CALM      30.16S
LUVERNE        MOSUNNY   55  50  82 CALM      30.17R
MARSHALL       SUNNY     63  54  72 W5        30.14S
MONTEVIDEO     SUNNY     64  57  77 CALM      30.13S
PIPESTONE      SUNNY     64  54  68 CALM      30.15S
REDWOOD FALLS  SUNNY     60  51  72 W3        30.13S
TRACY          SUNNY     64  54  69 W6        30.15R
WINDOM         SUNNY     63  54  72 W3        30.15S
WORTHINGTON    SUNNY     63  54  72 W3        30.17R
$$

IAZ001>003-012>014-020>022-031-032-NEZ013-014-SDZ071-231500-
NORTHWEST IOWA

CITY           SKY/WX    TMP DP  RH WIND       PRES   REMARKS
CHEROKEE       SUNNY     56  56 100 CALM      30.17S
DENISON        SUNNY     59  55  88 CALM      30.19R
ESTHERVILLE    SUNNY     61  56  83 W3        30.15R
ORANGE CITY    SUNNY     63  59  88 CALM      30.16F
SHELDON        SUNNY     59  55  88 CALM      30.15S
SIOUX CITY     SUNNY     61  57  87 E3        30.16F
SPENCER        SUNNY     61  55  81 CALM      30.16S
STORM LAKE     SUNNY     63  54  72 W6        30.17S
$$

ABBREVIATIONS USED IN REMARKS
   TC - TEMPERATURE IN CELSIUS
  WCI - WIND CHILL INDEX
   HX - HEAT INDEX
  VSB - VISIBILITY





USA.gov is the U.S. government's official web portal to all federal, state and local government web resources and services.